SJ-11-02

Satellite information

Favourite Embed

Satellite Type and Status

PAYLOADIN ORBIT

Key statistics

Satellite SJ-11-02 at a glance.

Uptime

5035

Days in orbit

Revolutions

≈ 14.6

Per day

Orbit

SSO

Sun Synchronous Orbit

Inclination

98.3

Latest

Satellite identification and parameters

Extended collection of information and parameters for SJ-11-02.

Object identification

Identified? True

Debris? False

Object name: SJ-11-02

International designator: 2011-039A

Object number (NORAD): 37765

Object ID (CCSDS): 37765

Country: PEOPLES REPUBLIC OF CHINA (PRC)

Current information (Y/N): Y

RCS size: LARGE

Orbital parameters

Period: 98.37 minutes

Inclination: 98.3132 deg

SMA: 7058.863 km

Apoapsis: 689.189 km

Periapsis: 672.266 km

RAAN: 13.4928 deg

Eccentricy: 0.0011987

Argument of periapsis: 83.3827 deg

Mean anomaly: 287.1945 deg

Mean motion: 14.6386382 rev/day

Mean motion (dot): 0.00000526 rev/day2

B* drag term: 0.0001101 1/REarth

Two-line elements (TLE)

Creation date: May 10, 2025, 10:46 p.m.

Reference frame: TEME

Reference center: EARTH

Epoch: May 10, 2025, 10:13 p.m. UTC

TLE line 0: 0 SJ-11-02

TLE line 1: 1 37765U 11039A 25130.92600392 .00000526 00000-0 11010-3 0 9993

TLE line 2: 2 37765 98.3132 13.4928 0011987 83.3827 287.1945 14.63863820735181

Live tracking on map

Real-time ground track for satellite SJ-11-02.

In-orbit conjunctions

There are no conjunctions computed for SJ-11-02, at the moment. Check back to stay up to date, as we update our databases every day.

Go to all conjunctions

Associated space launch

SJ-11-02 was lifted into orbit during the mission ‘Long March 2C | Shijian 10-02’, on board a Long March 2 space rocket.

The launch took place on July 29, 2011, 7:42 a.m. from Launch Area 4 (SLS-2 / 603).

For more information about the launch, click the button.

Launch to space Long March 2C | Shijian 10-02
Long March 2C | Shijian 10-02

Agency: N/A

Status: Launch Successful

Launch date: July 29, 2011, 7:42 a.m. UTC

Rocket: Long March 2

Launch pad: Launch Area 4 (SLS-2 / 603)

Location: Jiuquan Satellite Launch Center, People's Republic of China

...

Latest news about this satellite

There are no fresh news available about this satellite. Check back as we update our databases every day.


Newsletter sign-up

Weekly statistics, charts and insights to help you stay on top of the space industry.